{"data":{"norad_id":57670,"intl_designator":"2023-124H","name":"STARLINK-30322","alt_names":[],"object_type":"PAYLOAD","status":"ACTIVE","operator":null,"country":"US","launch_date":"2023-08-22","launch_site_code":"AFWTR","launch_vehicle":null,"mission":null,"orbit_class":"UNKNOWN","rcs_meters":null,"size_class":null,"mass_kg":null,"dimensions":null,"purposes":["comms"],"wikipedia_slug":null,"has_3d_model":false,"image_url":null,"decayed_at":null,"tle_current":{"epoch":"2026-09-20T14:42:34.315488Z","epoch_age_seconds":121930,"freshness":"FRESH","line1":"1 57670U 23124H   26263.61289717  .00002748  00000+0  92385-4 0  9998","line2":"2 57670  53.1613  18.9474 0000859  87.5708 272.5393 15.34410231173440","mean_motion":15.34410231,"eccentricity":8.59e-5,"inclination_deg":53.1613,"raan_deg":18.9474,"arg_perigee_deg":87.5708,"mean_anomaly_deg":272.5393,"bstar":9.2385e-5,"rev_number":17344,"period_min":93.847132331849,"perigee_km":462.08520612344,"apogee_km":463.26045725253,"semimajor_km":6840.809831688,"source":"CELESTRAK","updated_at":"2026-09-21T09:00:33.671051Z"}}}